Location: Newark
(42.8481°N, 0.4872°E)
Time: 17:24:12
(UTC+00:00)

Vanguard 1 - Pass Details

Date: 27 October 2020
Orbit: 650 x 3833 km, 34.2° (Epoch: 28 November)

Event Time Altitude Azimuth Distance (km) Brightness Sun altitude
Rises 11:13:56 0° 213° (SSW) 7,076 15.1 33.8°
Reaches altitude 10° 11:18:46 10° 206° (SSW) 6,374 15.1 33.9°
Maximum altitude 11:38:18 41° 145° (SE) 4,815 14.9 34.1°
Drops below altitude 10° 11:57:24 10° 85° (E) 6,300 14.2 34.0°
Sets 12:02:03 0° 79° (E) 6,999 14.3 33.9°
